Location: *
(37.9500°N, 27.3666°E)
Time: 00:05:43
(UTC+00:00)

Cosmos 614 Rocket - Pass Details

Date: 01 June 2022
Orbit: 732 x 764 km, 74.1° (Epoch: 01 July)

Event Time Altitude Azimuth Distance (km) Brightness Sun altitude
Rises 22:39:01 0° 350° (N) 3,222 8.3 -29.5°
Reaches altitude 10° 22:41:35 10° 360° (N) 2,297 7.4 -29.4°
Maximum altitude 22:46:20 35° 65° (ENE) 1,225 5.2 -29.2°
Enters shadow 22:47:06 33° 84° (E) 1,265 5.2 -29.2°
